TimeCDT,TemperatureF,Dew PointF,Humidity,Sea Level PressureIn,VisibilityMPH,Wind Direction,Wind SpeedMPH,Gust SpeedMPH,PrecipitationIn,Events,Conditions,WindDirDegrees,DateUTC
12:58 AM,73.6,73.2,99,30.14,10.0,ENE,2.3,-,N/A,,Clear,60,2013-07-08 05:58:00
1:58 AM,73.4,73.2,99,30.12,10.0,NE,3.5,-,N/A,,Clear,50,2013-07-08 06:58:00
2:18 AM,73.4,73.4,100,30.12,10.0,ENE,2.3,-,N/A,,Mostly Cloudy,60,2013-07-08 07:18:00
2:23 AM,73.4,73.4,100,30.12,10.0,ENE,3.5,-,N/A,,Scattered Clouds,60,2013-07-08 07:23:00
2:27 AM,73.4,73.4,100,30.12,10.0,NE,3.5,-,N/A,,Mostly Cloudy,50,2013-07-08 07:27:00
2:37 AM,73.4,73.4,100,30.12,10.0,ENE,3.5,-,N/A,,Mostly Cloudy,60,2013-07-08 07:37:00
2:42 AM,73.4,73.4,100,30.12,6.0,ENE,5.8,-,N/A,,Mostly Cloudy,70,2013-07-08 07:42:00
2:52 AM,73.4,73.4,100,30.12,2.0,East,5.8,-,N/A,,Mostly Cloudy,80,2013-07-08 07:52:00
2:58 AM,73.8,73.4,99,30.12,2.0,ENE,3.5,-,N/A,,Mostly Cloudy,70,2013-07-08 07:58:00
3:03 AM,73.4,73.4,100,30.12,2.5,East,4.6,-,N/A,,Scattered Clouds,80,2013-07-08 08:03:00
3:08 AM,73.4,73.4,100,30.12,3.0,East,3.5,-,N/A,,Scattered Clouds,80,2013-07-08 08:08:00
3:58 AM,73.6,73.2,99,30.12,10.0,ESE,1.2,-,N/A,,Clear,120,2013-07-08 08:58:00
4:51 AM,73.4,73.4,100,30.13,1.8,NE,3.5,-,N/A,,Partly Cloudy,50,2013-07-08 09:51:00
4:56 AM,73.4,73.4,100,30.13,0.8,NE,3.5,-,N/A,,Mist,40,2013-07-08 09:56:00
4:58 AM,73.4,73.4,100,30.14,0.8,NE,3.5,-,N/A,,Mist,40,2013-07-08 09:58:00
5:38 AM,73.4,73.4,100,30.14,1.0,ENE,4.6,-,N/A,,Mist,70,2013-07-08 10:38:00
5:48 AM,73.4,73.4,100,30.14,0.5,ENE,3.5,-,N/A,Fog,Fog,60,2013-07-08 10:48:00
5:58 AM,73.4,73.4,100,30.14,0.5,ENE,4.6,-,N/A,Fog,Fog,70,2013-07-08 10:58:00
6:08 AM,73.4,73.4,100,30.14,1.0,ENE,4.6,-,N/A,,Mist,70,2013-07-08 11:08:00
6:13 AM,73.4,73.4,100,30.14,3.0,East,4.6,-,N/A,,Scattered Clouds,80,2013-07-08 11:13:00
6:58 AM,74.1,74.1,100,30.16,10.0,NE,3.5,-,N/A,,Clear,40,2013-07-08 11:58:00
7:58 AM,74.8,74.5,99,30.17,10.0,ENE,3.5,-,N/A,,Clear,60,2013-07-08 12:58:00
8:55 AM,79.3,73.9,83,30.17,10.0,ENE,3.5,-,N/A,,Mostly Cloudy,60,2013-07-08 13:55:00
9:55 AM,83.7,73.6,72,30.17,10.0,ESE,5.8,-,N/A,,Mostly Cloudy,120,2013-07-08 14:55:00
10:55 AM,83.8,72.7,69,30.19,10.0,ESE,3.5,-,N/A,,Mostly Cloudy,110,2013-07-08 15:55:00
11:55 AM,85.6,72.5,65,30.19,10.0,ESE,4.6,-,N/A,,Mostly Cloudy,110,2013-07-08 16:55:00
12:55 PM,87.8,72.5,60,30.15,9.0,East,5.8,-,N/A,,Mostly Cloudy,90,2013-07-08 17:55:00
1:55 PM,89.1,71.2,55,30.14,10.0,South,3.5,-,N/A,,Mostly Cloudy,180,2013-07-08 18:55:00
2:55 PM,83.5,73.8,72,30.13,10.0,WSW,12.7,-,N/A,,Mostly Cloudy,250,2013-07-08 19:55:00
3:39 PM,84.2,75.2,74,30.11,10.0,SW,6.9,-,N/A,Thunderstorm,Thunderstorm,220,2013-07-08 20:39:00
3:55 PM,84.0,74.5,73,30.12,10.0,WSW,5.8,-,N/A,Thunderstorm,Thunderstorm,250,2013-07-08 20:55:00
4:15 PM,84.2,75.2,74,30.13,10.0,SSW,6.9,-,N/A,Thunderstorm,Mostly Cloudy,200,2013-07-08 21:15:00
4:55 PM,84.0,74.5,73,30.14,10.0,SW,5.8,-,N/A,Thunderstorm,Mostly Cloudy,220,2013-07-08 21:55:00
5:55 PM,78.6,74.5,87,30.14,10.0,North,2.3,-,N/A,,Mostly Cloudy,350,2013-07-08 22:55:00
6:22 PM,78.8,75.2,89,30.13,10.0,NE,3.5,-,N/A,Rain,Light Rain,50,2013-07-08 23:22:00
6:55 PM,77.0,74.1,91,30.13,10.0,Calm,Calm,-,0.00,,Light Drizzle,0,2013-07-08 23:55:00
7:23 PM,78.8,75.2,89,30.14,10.0,NW,3.5,-,N/A,,Mostly Cloudy,310,2013-07-09 00:23:00
7:55 PM,78.1,74.8,90,30.14,10.0,Calm,Calm,-,0.00,,Mostly Cloudy,0,2013-07-09 00:55:00
8:55 PM,75.7,75.0,98,30.16,10.0,NE,3.5,-,N/A,,Mostly Cloudy,40,2013-07-09 01:55:00
9:55 PM,75.0,74.1,97,30.19,10.0,Variable,4.6,-,N/A,,Mostly Cloudy,0,2013-07-09 02:55:00
10:55 PM,74.5,73.8,98,30.19,9.0,NW,5.8,-,N/A,,Mostly Cloudy,320,2013-07-09 03:55:00
11:55 PM,73.6,73.2,99,30.17,10.0,Calm,Calm,-,N/A,,Mostly Cloudy,0,2013-07-09 04:55:00